1504411200.62,24709,18.38,73164.8,0.01,-1.99,-1.75,0,*76
1504411201.83,24710,18.38,73162.5,0.01,-1.99,-1.75,0,*7E
1504411203.03,24711,18.38,73156.3,0.01,-1.87,-1.63,0,*77
1504411204.23,24712,18.38,73160.0,0.01,-1.87,-1.63,0,*74
1504411205.44,24713,18.38,73156.5,0.01,-1.83,-1.63,0,*71
1504411206.63,24714,18.38,73154.5,0.01,-1.83,-1.59,0,*7F
1504411207.84,24715,18.38,73158.5,0.01,-1.71,-1.47,0,*7C
1504411209.08,24716,18.38,73170.0,-0.01,-1.63,-1.47,0,*51
1504411210.28,24717,18.38,73172.5,-0.01,-1.63,-1.55,0,*53
1504411211.46,24718,18.38,73174.0,-0.03,-1.75,-1.63,0,*5C
1504411212.67,24719,18.38,73174.5,-0.03,-1.83,-1.67,0,*50
1504411213.91,24720,18.38,73176.0,-0.01,-1.95,-1.75,0,*5C
1504411215.12,24721,18.38,73176.0,-0.03,-1.99,-1.79,0,*5F
1504411216.33,24722,18.38,73174.0,-0.03,-1.91,-1.79,0,*54
1504411217.54,24723,18.38,73174.5,-0.03,-1.99,-1.75,0,*51
1504411218.75,24724,18.38,73168.8,-0.03,-1.91,-1.75,0,*5E
1504411219.98,24725,18.38,73170.8,-0.01,-1.83,-1.63,0,*59
1504411221.22,24726,18.38,73170.8,-0.05,-1.87,-1.63,0,*5A
1504411222.42,24727,18.38,73166.0,-0.05,-1.79,-1.59,0,*53
1504411223.61,24728,18.38,73158.0,-0.07,-1.79,-1.63,0,*57
1504411224.81,24729,18.38,73160.0,-0.05,-1.67,-1.51,0,*5A
1504411226.02,24730,18.38,73158.5,-0.05,-1.67,-1.51,0,*52
1504411227.23,24731,18.38,73158.0,-0.05,-1.67,-1.51,0,*53
1504411228.44,24732,18.38,73152.3,-0.05,-1.75,-1.51,0,*53
1504411229.65,24733,18.38,73154.3,-0.05,-1.67,-1.51,0,*51
1504411230.88,24734,18.38,73150.5,-0.05,-1.63,-1.47,0,*55
1504411232.11,24735,18.38,73152.8,-0.05,-1.59,-1.47,0,*5D
1504411233.29,24736,18.38,73148.0,-0.07,-1.55,-1.51,0,*57
1504411234.52,24737,18.38,73154.3,-0.05,-1.51,-1.39,0,*5E
1504411235.73,24738,18.38,73150.3,-0.07,-1.51,-1.43,0,*5E
1504411236.99,24739,18.38,73156.8,-0.05,-1.47,-1.47,0,*5E
1504411238.22,24740,18.38,73158.0,-0.05,-1.51,-1.39,0,*5E
1504411239.4,24741,18.38,73158.8,-0.07,-1.55,-1.51,0,*57
1504411240.63,24742,18.38,73160.3,-0.05,-1.51,-1.39,0,*5C
1504411241.82,24743,18.38,73154.5,-0.07,-1.63,-1.51,0,*50
1504411243.03,24744,18.38,73156.3,-0.07,-1.55,-1.43,0,*51
1504411244.29,24745,18.38,73158.5,-0.05,-1.47,-1.35,0,*50
1504411245.5,24746,18.38,73156.0,-0.07,-1.43,-1.33,0,*53
1504411246.73,24747,18.38,73154.0,-0.05,-1.39,-1.29,0,*56
1504411247.94,24748,18.38,73158.3,-0.07,-1.43,-1.33,0,*5D
1504411249.15,24749,18.38,73162.8,-0.07,-1.43,-1.29,0,*57
1504411250.37,24750,18.38,73160.3,-0.07,-1.39,-1.21,0,*5A
1504411251.58,24751,18.38,73162.8,-0.05,-1.29,-1.25,0,*5C
1504411252.79,24752,18.38,73160.3,-0.07,-1.43,-1.33,0,*56
1504411254.0,24753,18.38,73162.0,-0.07,-1.39,-1.33,0,*5A
1504411255.21,24754,18.38,73158.3,-0.07,-1.35,-1.33,0,*51
1504411256.42,24755,18.38,73160.5,-0.07,-1.39,-1.33,0,*5C
1504411257.63,24756,18.38,73162.5,-0.05,-1.25,-1.29,0,*5B
1504411258.81,24757,18.38,73160.5,-0.07,-1.33,-1.33,0,*54
1504411260.02,24758,18.38,73160.8,-0.05,-1.25,-1.17,0,*58
1504411261.21,24759,18.38,73160.5,-0.07,-1.33,-1.29,0,*51
1504411262.39,24760,18.38,73160.5,-0.07,-1.29,-1.29,0,*50
1504411263.58,24761,18.31,73160.3,-0.07,-1.29,-1.29,0,*51
1504411264.8,24762,18.38,73166.5,-0.05,-1.17,-1.17,0,*50
1504411266.01,24763,18.38,73166.5,-0.07,-1.29,-1.39,0,*52
1504411267.23,24764,18.38,73166.3,-0.07,-1.33,-1.43,0,*53
1504411268.47,24765,18.38,73158.8,-0.07,-1.39,-1.43,0,*58
1504411269.71,24766,18.38,73158.3,-0.07,-1.39,-1.39,0,*56
1504411270.89,24767,18.38,73160.3,-0.07,-1.33,-1.33,0,*57
1504411272.11,24768,18.38,73160.0,-0.09,-1.33,-1.33,0,*56
1504411273.3,24769,18.38,73160.0,-0.07,-1.29,-1.21,0,*51
1504411274.48,24770,18.38,73160.0,-0.07,-1.33,-1.29,0,*5A
1504411275.68,24771,18.38,73158.8,-0.07,-1.29,-1.21,0,*58
1504411276.91,24772,18.38,73166.5,-0.05,-1.13,-1.17,0,*55
1504411278.1,24773,18.38,73162.5,-0.07,-1.21,-1.21,0,*52
1504411279.29,24774,18.38,73166.8,-0.07,-1.21,-1.29,0,*5D
1504411280.48,24775,18.38,73162.8,-0.07,-1.29,-1.29,0,*54
1504411281.67,24776,18.38,73164.8,-0.07,-1.29,-1.21,0,*5F
1504411282.85,24777,18.38,73158.8,-0.07,-1.29,-1.29,0,*56
1504411284.04,24778,18.38,73160.3,-0.07,-1.29,-1.29,0,*59
1504411285.23,24779,18.38,73164.3,-0.07,-1.33,-1.29,0,*53
1504411286.42,24780,18.38,73160.3,-0.07,-1.33,-1.29,0,*55
1504411287.63,24781,18.38,73162.3,-0.07,-1.33,-1.39,0,*55
1504411288.9,24782,18.38,73160.5,-0.05,-1.39,-1.39,0,*5E
1504411290.16,24783,18.38,73156.5,-0.05,-1.47,-1.47,0,*5F
1504411291.4,24784,18.38,73156.0,-0.05,-1.47,-1.51,0,*5F
1504411292.57,24785,18.31,73152.3,-0.07,-1.51,-1.55,0,*5F
1504411293.78,24786,18.38,73158.8,-0.09,-1.55,-1.59,0,*5A
1504411294.99,24787,18.38,73158.8,-0.09,-1.55,-1.55,0,*57
1504411296.22,24788,18.38,73158.3,-0.11,-1.01,-1.13,0,*62
1504411297.46,24789,18.38,73158.5,-0.07,-1.05,-1.05,0,*57
1504411298.68,24790,18.38,73160.0,-0.07,-1.29,-1.39,0,*5E
1504411299.86,24791,18.38,73164.8,-0.07,-1.33,-1.33,0,*5E
1504411301.08,24792,18.38,73160.0,-0.09,-1.33,-1.33,0,*53
1504411302.29,24793,18.38,73162.8,-0.09,-1.25,-1.25,0,*52
1504411303.49,24794,18.38,73160.0,-0.09,-1.25,-1.25,0,*55
1504411304.75,24795,18.38,73162.8,-0.09,-1.09,-1.13,0,*5F
1504411305.99,24796,18.38,73162.5,-0.09,-1.13,-1.21,0,*56
1504411307.23,24797,18.38,73160.0,-0.09,-1.13,-1.21,0,*57
1504411308.42,24798,18.38,73160.0,-0.11,-1.21,-1.33,0,*63
1504411309.66,24799,18.31,73164.3,-0.09,-1.33,-1.43,0,*5F
1504411310.9,24800,18.38,73162.0,-0.09,-1.25,-1.47,0,*53
1504411312.11,24801,18.38,73168.0,-0.07,-1.33,-1.43,0,*5F
1504411313.32,24802,18.31,73166.0,-0.09,-1.55,-1.55,0,*55
1504411314.53,24803,18.38,73160.0,-0.09,-1.55,-1.55,0,*54
1504411315.77,24804,18.38,73164.3,-0.09,-1.55,-1.47,0,*50
1504411316.97,24805,18.38,73164.3,-0.09,-1.55,-1.55,0,*52
1504411318.18,24806,18.38,73164.8,-0.09,-1.59,-1.59,0,*51
1504411319.37,24807,18.38,73160.5,-0.11,-1.67,-1.67,0,*69
1504411320.55,24808,18.31,73160.5,-0.11,-1.59,-1.59,0,*66
1504411321.73,24809,18.38,73160.8,-0.11,-1.55,-1.59,0,*6B
1504411322.94,24810,18.31,73162.5,-0.11,-1.55,-1.47,0,*6C
1504411324.18,24811,18.38,73160.8,-0.11,-1.35,-1.43,0,*6F
1504411325.45,24812,18.38,73158.8,-0.09,-1.35,-1.35,0,*54
1504411326.69,24813,18.38,73156.5,-0.11,-1.47,-1.35,0,*69
1504411327.93,24814,18.38,73158.8,-0.11,-1.43,-1.43,0,*6B
1504411329.17,24815,18.38,73160.5,-0.11,-1.43,-1.35,0,*6B
1504411330.38,24816,18.38,73160.3,-0.11,-1.35,-1.25,0,*68
1504411331.63,24817,18.38,73162.8,-0.09,-1.13,-1.13,0,*51
1504411332.89,24818,18.38,73166.3,-0.09,-1.09,-1.01,0,*56
1504411334.15,24819,18.38,73164.3,-0.09,-1.09,-1.01,0,*57
1504411335.41,24820,18.31,73160.0,-0.09,-1.13,-1.09,0,*5E
1504411336.64,24821,18.38,73164.3,-0.09,-1.25,-1.09,0,*5A
1504411337.88,24822,18.38,73162.5,-0.09,-1.21,-1.13,0,*56
1504411339.09,24823,18.31,73162.8,-0.09,-1.25,-1.21,0,*52
1504411340.32,24824,18.38,73162.5,-0.09,-1.35,-1.25,0,*50
1504411341.56,24825,18.38,73162.3,-0.09,-1.35,-1.33,0,*56
1504411342.77,24826,18.38,73160.5,-0.09,-1.55,-1.33,0,*53
1504411343.98,24827,18.31,73162.3,-0.11,-1.55,-1.43,0,*6C
1504411345.21,24828,18.38,73162.3,-0.09,-1.55,-1.43,0,*5A
1504411346.45,24829,18.38,73166.5,-0.11,-1.43,-1.35,0,*64
1504411347.72,24830,18.38,73162.8,-0.09,-1.35,-1.35,0,*54
1504411348.95,24831,18.38,73164.3,-0.09,-1.43,-1.33,0,*52
1504411350.19,24832,18.38,73162.5,-0.09,-1.43,-1.25,0,*56
1504411351.43,24833,18.31,73160.0,-0.09,-1.35,-1.21,0,*52
1504411352.64,24834,18.38,73160.3,-0.09,-1.33,-1.21,0,*53
1504411353.88,24835,18.38,73162.3,-0.09,-1.25,-1.13,0,*54
1504411355.11,24836,18.31,73156.8,-0.09,-1.35,-1.21,0,*57
1504411356.35,24837,18.38,73158.0,-0.09,-1.35,-1.25,0,*52
1504411357.58,24838,18.31,73154.8,-0.09,-1.43,-1.33,0,*5B
1504411358.76,24839,18.31,73156.8,-0.07,-1.51,-1.29,0,*5C
1504411360.0,24840,18.38,73160.5,-0.09,-1.55,-1.43,0,*54
1504411361.23,24841,18.31,73156.5,-0.09,-1.55,-1.47,0,*51
1504411362.44,24842,18.31,73158.5,-0.09,-1.67,-1.55,0,*50
1504411363.63,24843,18.38,73158.8,-0.11,-1.75,-1.55,0,*6B
1504411364.84,24844,18.38,73158.0,-0.11,-1.83,-1.55,0,*65
1504411366.08,24845,18.31,73152.5,-0.09,-1.83,-1.67,0,*5C
1504411367.32,24846,18.31,73150.5,-0.09,-1.87,-1.67,0,*5B
1504411368.54,24847,18.31,73150.0,-0.11,-1.95,-1.67,0,*60
1504411369.75,24848,18.31,73146.3,-0.11,-1.87,-1.59,0,*61
1504411370.96,24849,18.31,73148.0,-0.11,-1.87,-1.59,0,*60
1504411372.17,24850,18.38,73150.0,-0.11,-1.83,-1.59,0,*6C
1504411373.36,24851,18.38,73142.3,-0.11,-1.75,-1.59,0,*64
1504411374.57,24852,18.31,73136.8,-0.11,-1.87,-1.59,0,*6A
1504411375.79,24853,18.31,73138.3,-0.11,-1.99,-1.71,0,*6E
1504411377.01,24854,18.31,73136.3,-0.11,-2.07,-1.75,0,*69
1504411378.25,24855,18.31,73140.8,-0.15,-2.11,-1.87,0,*66
1504411379.53,24856,18.31,73144.8,-0.13,-2.11,-1.91,0,*64
1504411380.79,24857,18.31,73142.3,-0.13,-1.91,-1.87,0,*69
1504411382.01,24858,18.31,73142.5,-0.15,-1.99,-1.75,0,*65
1504411383.23,24859,18.38,73142.8,-0.15,-1.91,-1.75,0,*6C
1504411384.44,24860,18.38,73142.8,-0.15,-1.91,-1.75,0,*66
1504411385.66,24861,18.31,73140.3,-0.15,-1.91,-1.75,0,*67
1504411386.88,24862,18.31,73132.8,-0.15,-1.87,-1.71,0,*67
1504411388.1,24863,18.31,73126.5,-0.15,-1.87,-1.63,0,*65
1504411389.29,24864,18.38,73124.8,-0.15,-1.79,-1.63,0,*63
1504411390.48,24865,18.31,73126.5,-0.15,-1.75,-1.63,0,*6E
1504411391.67,24866,18.31,73120.5,-0.15,-1.79,-1.63,0,*61
1504411392.86,24867,18.31,73130.0,-0.15,-1.75,-1.63,0,*6C
1504411394.05,24868,18.31,73140.3,-0.15,-1.71,-1.63,0,*67
1504411395.27,24869,18.38,73146.8,-0.17,-1.79,-1.75,0,*6B
1504411396.49,24870,18.31,73144.3,-0.17,-1.67,-1.63,0,*6B
1504411397.72,24871,18.31,73138.0,-0.17,-1.29,-1.29,0,*6E
1504411398.93,24872,18.31,73138.0,-0.17,-1.63,-1.55,0,*68
1504411400.12,24873,18.38,73146.3,-0.21,-1.75,-1.67,0,*6A
1504411401.34,24874,18.38,73150.3,-0.17,-1.75,-1.75,0,*6B
1504411402.56,24875,18.31,73150.3,-0.17,-1.67,-1.75,0,*69
1504411403.75,24876,18.31,73142.8,-0.15,-1.63,-1.63,0,*6B
1504411404.94,24877,18.31,73146.8,-0.21,-1.67,-1.67,0,*6D
1504411406.13,24878,18.38,73146.5,-0.21,-1.29,-1.33,0,*69
1504411407.37,24879,18.31,73144.5,-0.17,-1.55,-1.43,0,*61
1504411408.56,24880,18.38,73150.8,-0.21,-1.63,-1.63,0,*65
1504411409.74,24881,18.31,73144.5,-0.21,-1.63,-1.63,0,*64
1504411410.93,24882,18.31,73142.8,-0.21,-1.67,-1.63,0,*63
1504411412.11,24883,18.31,73136.0,-0.21,-1.67,-1.63,0,*62
1504411413.3,24884,18.31,73130.8,-0.21,-1.75,-1.63,0,*66
1504411414.52,24885,18.31,73134.5,-0.17,-1.75,-1.55,0,*67
1504411415.74,24886,18.31,73136.0,-0.17,-1.75,-1.63,0,*61
1504411416.92,24887,18.38,73136.0,-0.21,-1.75,-1.67,0,*61
1504411418.11,24888,18.31,73140.8,-0.21,-1.67,-1.67,0,*6D
1504411419.3,24889,18.38,73140.8,-0.21,-1.79,-1.67,0,*63
1504411420.52,24890,18.31,73142.8,-0.21,-1.83,-1.67,0,*6E
1504411421.7,24891,18.31,73142.0,-0.21,-1.79,-1.75,0,*69
1504411422.89,24892,18.31,73132.5,-0.21,-1.79,-1.67,0,*69
1504411424.08,24893,18.31,73128.8,-0.21,-1.79,-1.67,0,*68
1504411425.27,24894,18.38,73142.5,-0.21,-1.75,-1.63,0,*67
1504411426.49,24895,18.31,73140.3,-0.23,-1.71,-1.71,0,*63
1504411427.71,24896,18.31,73138.5,-0.23,-1.79,-1.71,0,*68
1504411428.93,24897,18.31,73140.8,-0.23,-1.71,-1.67,0,*66
1504411430.17,24898,18.31,73142.0,-0.23,-1.83,-1.71,0,*63
1504411431.41,24899,18.31,73140.8,-0.23,-1.83,-1.71,0,*62
1504411432.63,24900,18.31,73146.5,-0.23,-1.79,-1.71,0,*66
1504411433.85,24901,18.31,73142.8,-0.23,-1.71,-1.71,0,*6F
1504411435.07,24902,18.31,73136.0,-0.23,-1.71,-1.71,0,*6C
1504411436.29,24903,18.31,73134.3,-0.23,-1.71,-1.71,0,*6D
1504411437.49,24904,18.31,73130.5,-0.25,-1.79,-1.71,0,*64
1504411438.7,24905,18.31,73126.5,-0.23,-1.79,-1.71,0,*63
1504411439.91,24906,18.38,73132.8,-0.25,-1.71,-1.71,0,*6E
1504411441.11,24907,18.31,73136.8,-0.25,-1.71,-1.67,0,*68
1504411442.31,24908,18.31,73134.0,-0.23,-1.67,-1.59,0,*6B
1504411443.5,24909,18.31,73128.0,-0.25,-1.59,-1.59,0,*61
1504411444.69,24910,18.31,73136.5,-0.25,-1.67,-1.55,0,*68
1504411445.91,24911,18.31,73136.8,-0.25,-1.47,-1.55,0,*6B
1504411447.12,24912,18.31,73138.0,-0.25,-1.47,-1.55,0,*68
1504411448.34,24913,18.31,73138.5,-0.25,-1.47,-1.55,0,*69
1504411449.53,24914,18.31,73138.0,-0.25,-1.55,-1.59,0,*61
1504411450.72,24915,18.31,73138.3,-0.25,-1.67,-1.67,0,*6C
1504411451.91,24916,18.31,73138.0,-0.25,-1.59,-1.67,0,*62
1504411453.13,24917,18.31,73136.5,-0.23,-1.67,-1.67,0,*68
1504411454.33,24918,18.31,73132.5,-0.25,-1.71,-1.67,0,*66
1504411455.52,24919,18.38,73136.8,-0.25,-1.67,-1.67,0,*60
1504411456.73,24920,18.31,73138.0,-0.25,-1.71,-1.67,0,*6D
1504411457.92,24921,18.31,73140.8,-0.25,-1.67,-1.67,0,*6B
1504411459.14,24922,18.31,73138.0,-0.23,-1.67,-1.67,0,*6E
1504411460.33,24923,18.31,73138.8,-0.25,-1.79,-1.71,0,*61
1504411461.52,24924,18.31,73140.5,-0.25,-1.79,-1.79,0,*6E
1504411462.74,24925,18.31,73136.3,-0.27,-1.75,-1.75,0,*6D
1504411463.94,24926,18.31,73134.0,-0.25,-1.71,-1.71,0,*6C
1504411465.15,24927,18.31,73146.8,-0.27,-1.75,-1.75,0,*6F
1504411466.37,24928,18.31,73146.5,-0.27,-1.71,-1.75,0,*64
1504411467.58,24929,18.31,73144.8,-0.27,-1.51,-1.63,0,*60
1504411468.82,24930,18.31,73142.3,-0.27,-1.39,-1.51,0,*67
1504411470.08,24931,18.31,73144.0,-0.27,-1.35,-1.47,0,*6D
1504411471.35,24932,18.31,73144.5,-0.27,-1.39,-1.39,0,*6B
1504411472.6,24933,18.31,73140.0,-0.29,-1.35,-1.39,0,*68
1504411473.87,24934,18.31,73142.0,-0.27,-1.39,-1.35,0,*61
1504411475.14,24935,18.31,73138.5,-0.27,-1.39,-1.39,0,*6C
1504411476.33,24936,18.31,73146.0,-0.25,-1.33,-1.33,0,*6D
1504411477.57,24937,18.31,73138.3,-0.25,-1.35,-1.35,0,*6C
1504411478.82,24938,18.31,73138.8,-0.25,-1.43,-1.35,0,*62
1504411480.06,24939,18.31,73140.3,-0.25,-1.35,-1.35,0,*62
1504411481.3,24940,18.31,73142.5,-0.23,-1.55,-1.43,0,*6D
1504411482.49,24941,18.31,73144.5,-0.25,-1.55,-1.55,0,*6D
1504411483.67,24942,18.31,73142.3,-0.25,-1.59,-1.55,0,*62
1504411484.92,24943,18.31,73140.5,-0.25,-1.47,-1.47,0,*6F
1504411486.16,24944,18.31,73136.3,-0.25,-1.35,-1.35,0,*68
1504411487.38,24945,18.31,73140.0,-0.25,-1.13,-1.33,0,*6B
1504411488.62,24946,18.31,73136.8,-0.25,-1.09,-1.01,0,*62
1504411489.86,24947,18.31,73144.8,-0.25,-1.01,-1.01,0,*6B
1504411491.09,24948,18.31,73138.8,-0.25,-0.97,-0.93,0,*60
1504411492.32,24949,18.31,73140.5,-0.25,-0.97,-0.93,0,*61
1504411493.57,24950,18.31,73146.8,-0.23,-0.97,-0.97,0,*6B
1504411494.82,24951,18.31,73144.5,-0.23,-1.01,-0.97,0,*54
1504411496.08,24952,18.31,73150.5,-0.23,-0.97,-0.97,0,*69
1504411497.31,24953,18.31,73148.0,-0.25,-0.97,-0.97,0,*6E
1504411498.53,24954,18.31,73146.3,-0.21,-0.97,-0.93,0,*69
1504411499.76,24955,18.31,73146.8,-0.21,-0.97,-0.93,0,*68
1504411500.99,24956,18.31,73142.5,-0.21,-1.05,-0.97,0,*55
1504411502.21,24957,18.31,73144.0,-0.21,-1.17,-1.05,0,*6D
1504411503.42,24958,18.31,73148.0,-0.21,-1.21,-1.09,0,*6B
1504411504.63,24959,18.31,73144.5,-0.21,-1.21,-1.09,0,*6A
1504411505.82,24960,18.31,73144.8,-0.21,-1.29,-1.17,0,*67
1504411507.05,24961,18.31,73146.5,-0.17,-1.29,-1.21,0,*66
1504411508.26,24962,18.31,73150.3,-0.21,-1.29,-1.09,0,*6A
1504411509.45,24963,18.31,73154.5,-0.21,-1.29,-1.17,0,*64
1504411510.64,24964,18.31,73154.5,-0.21,-1.21,-1.17,0,*6B
1504411511.85,24965,18.31,73152.5,-0.21,-1.29,-1.09,0,*6D
1504411513.04,24966,18.31,73158.0,-0.21,-1.21,-1.17,0,*69
1504411514.27,24967,18.31,73158.0,-0.17,-1.29,-1.17,0,*65
1504411515.52,24968,18.31,73152.0,-0.17,-1.39,-1.21,0,*6E
1504411516.74,24969,18.31,73158.0,-0.17,-1.29,-1.17,0,*6B
1504411517.96,24970,18.38,73160.5,-0.21,-1.39,-1.29,0,*6A
1504411519.18,24971,18.31,73158.5,-0.17,-1.33,-1.29,0,*64
1504411520.43,24972,18.31,73150.5,-0.17,-1.39,-1.29,0,*6D
1504411521.65,24973,18.31,73148.3,-0.17,-1.51,-1.21,0,*6A
1504411522.83,24974,18.31,73148.5,-0.21,-1.55,-1.33,0,*6F
1504411524.08,24975,18.31,73144.3,-0.17,-1.63,-1.39,0,*64
1504411525.29,24976,18.31,73144.8,-0.21,-1.63,-1.43,0,*6F
1504411526.51,24977,18.31,73140.0,-0.17,-1.75,-1.51,0,*6F
1504411527.73,24978,18.31,73132.5,-0.17,-1.67,-1.63,0,*62
1504411528.91,24979,18.31,73132.0,-0.21,-1.75,-1.55,0,*60
1504411530.13,24980,18.31,73122.0,-0.17,-1.75,-1.63,0,*66
1504411531.32,24981,18.31,73122.5,-0.21,-1.67,-1.51,0,*60
1504411532.5,24982,18.31,73120.0,-0.21,-1.67,-1.55,0,*67
1504411533.68,24983,18.31,73122.5,-0.21,-1.75,-1.55,0,*65
1504411534.87,24984,18.31,73120.3,-0.21,-1.79,-1.55,0,*6E
1504411536.05,24985,18.31,73122.0,-0.21,-1.75,-1.55,0,*63
1504411537.23,24986,18.31,73122.3,-0.21,-1.75,-1.55,0,*60
1504411538.41,24987,18.31,73118.0,-0.21,-1.75,-1.55,0,*61
1504411539.63,24988,18.31,73116.3,-0.23,-1.71,-1.59,0,*64
1504411540.84,24989,18.31,73126.5,-0.21,-1.67,-1.43,0,*6B
1504411542.05,24990,18.31,73130.3,-0.21,-1.67,-1.43,0,*63
1504411543.24,24991,18.31,73128.3,-0.21,-1.67,-1.51,0,*61
1504411544.42,24992,18.31,73134.0,-0.21,-1.67,-1.51,0,*62
1504411545.61,24993,18.31,73132.8,-0.21,-1.67,-1.63,0,*62
1504411546.79,24994,18.31,73142.3,-0.21,-1.79,-1.63,0,*6A
1504411548.04,24995,18.31,73136.5,-0.23,-1.83,-1.71,0,*6F
1504411549.28,24996,18.31,73132.8,-0.23,-1.83,-1.71,0,*6C
1504411550.52,24997,18.31,73132.3,-0.23,-1.87,-1.79,0,*61
1504411551.74,24998,18.31,73128.0,-0.25,-1.87,-1.71,0,*60
1504411552.97,24999,18.31,73118.3,-0.25,-1.87,-1.71,0,*61
1504411554.21,25000,18.31,73126.3,-0.23,-1.83,-1.71,0,*6B
1504411555.43,25001,18.31,73122.0,-0.25,-1.87,-1.71,0,*68
1504411556.66,25002,18.31,73124.5,-0.25,-1.83,-1.71,0,*6F
1504411557.88,25003,18.31,73130.0,-0.25,-1.87,-1.67,0,*6D
1504411559.12,25004,18.31,73128.3,-0.23,-1.87,-1.71,0,*6B
1504411560.37,25005,18.31,73132.3,-0.25,-1.99,-1.83,0,*6E
1504411561.59,25006,18.31,73124.5,-0.25,-1.95,-1.79,0,*64
1504411562.81,25007,18.31,73112.3,-0.25,-1.95,-1.71,0,*6D
1504411564.03,25008,18.31,73108.0,-0.25,-1.87,-1.71,0,*61
1504411565.3,25009,18.31,73110.3,-0.27,-1.99,-1.87,0,*64
1504411566.57,25010,18.31,73112.0,-0.27,-2.11,-2.03,0,*60
1504411567.81,25011,18.31,73112.5,-0.27,-2.15,-2.03,0,*65
1504411569.05,25012,18.31,73120.3,-0.29,-1.99,-1.91,0,*67
1504411570.32,25013,18.31,73128.0,-0.27,-1.87,-1.87,0,*60
1504411571.58,25014,18.31,73130.8,-0.27,-1.87,-1.83,0,*63
1504411572.8,25015,18.31,73130.3,-0.29,-1.83,-1.75,0,*61
1504411574.0,25016,18.31,73130.0,-0.29,-1.75,-1.75,0,*6B
1504411575.19,25017,18.31,73130.8,-0.29,-1.75,-1.75,0,*6A
1504411576.4,25018,18.31,73128.0,-0.27,-1.75,-1.71,0,*6F
1504411577.6,25019,18.31,73128.8,-0.29,-1.71,-1.71,0,*64
1504411578.82,25020,18.31,73142.0,-0.27,-1.71,-1.63,0,*63
1504411580.04,25021,18.31,73142.0,-0.29,-1.63,-1.47,0,*69
1504411581.27,25022,18.31,73144.8,-0.27,-1.51,-1.47,0,*65
1504411582.52,25023,18.31,73146.0,-0.29,-1.47,-1.39,0,*64
1504411583.77,25024,18.31,73142.8,-0.29,-1.39,-1.39,0,*6A
1504411585.04,25025,18.31,73142.0,-0.27,-1.47,-1.39,0,*6C
1504411586.28,25026,18.31,73132.0,-0.29,-1.47,-1.39,0,*61
1504411587.52,25027,18.31,73134.3,-0.27,-1.59,-1.39,0,*61
1504411588.75,25028,18.31,73132.8,-0.27,-1.51,-1.39,0,*66
1504411589.97,25029,18.31,73130.3,-0.29,-1.51,-1.47,0,*60
1504411591.23,25030,18.31,73134.3,-0.27,-1.47,-1.35,0,*64
1504411592.47,25031,18.31,73132.3,-0.27,-1.47,-1.29,0,*68
1504411593.68,25032,18.31,73134.5,-0.27,-1.51,-1.29,0,*6C
1504411594.95,25033,18.31,73132.3,-0.27,-1.47,-1.35,0,*67
1504411596.15,25034,18.31,73128.0,-0.27,-1.51,-1.29,0,*6A
1504411597.42,25035,18.31,73122.8,-0.27,-1.47,-1.35,0,*61
1504411598.64,25036,18.31,73112.3,-0.25,-1.43,-1.25,0,*65
1504411599.85,25037,18.31,73106.0,-0.25,-1.55,-1.35,0,*62
1504411601.07,25038,18.31,73114.8,-0.25,-1.55,-1.43,0,*6C
1504411602.28,25039,18.31,73114.0,-0.25,-1.59,-1.43,0,*61
1504411603.5,25040,18.31,73110.0,-0.25,-1.67,-1.43,0,*62
1504411604.69,25041,18.31,73104.3,-0.25,-1.67,-1.55,0,*64
1504411605.93,25042,18.31,73106.0,-0.27,-1.83,-1.71,0,*69
1504411607.17,25043,18.31,73114.5,-0.27,-1.83,-1.63,0,*6B
1504411608.42,25044,18.31,73122.3,-0.27,-1.87,-1.71,0,*6B
1504411609.66,25045,18.31,73124.3,-0.27,-1.83,-1.63,0,*6D
1504411610.9,25046,18.31,73124.5,-0.27,-1.83,-1.71,0,*6D
1504411612.11,25047,18.31,73126.8,-0.27,-1.75,-1.63,0,*66
1504411613.34,25048,18.31,73124.0,-0.29,-1.87,-1.71,0,*69
1504411614.56,25049,18.31,73124.0,-0.29,-1.87,-1.71,0,*68
1504411615.78,25050,18.31,73118.5,-0.29,-1.91,-1.71,0,*67
1504411617.0,25051,18.31,73118.5,-0.29,-1.91,-1.75,0,*62
1504411618.21,25052,18.31,73122.0,-0.29,-1.91,-1.75,0,*61
1504411619.46,25053,18.31,73120.3,-0.29,-1.99,-1.83,0,*61
1504411620.71,25054,18.31,73120.5,-0.29,-1.99,-1.83,0,*66
1504411621.93,25055,18.31,73126.0,-0.29,-1.91,-1.75,0,*66
1504411623.14,25056,18.31,73122.8,-0.29,-1.91,-1.75,0,*65
1504411624.36,25057,18.31,73126.5,-0.29,-1.91,-1.75,0,*64
1504411625.58,25058,18.31,73124.3,-0.29,-1.87,-1.75,0,*6C
1504411626.78,25059,18.31,73124.0,-0.29,-1.75,-1.71,0,*64
1504411628.0,25060,18.31,73120.0,-0.29,-1.87,-1.71,0,*63
1504411629.24,25061,18.31,73120.0,-0.31,-1.91,-1.75,0,*68
1504411630.46,25062,18.31,73124.5,-0.33,-1.95,-1.71,0,*69
1504411631.68,25063,18.31,73124.5,-0.33,-1.91,-1.79,0,*64
1504411632.92,25064,18.31,73126.0,-0.31,-1.87,-1.67,0,*69
1504411634.14,25065,18.31,73118.5,-0.31,-1.79,-1.67,0,*69
1504411635.36,25066,18.31,73118.3,-0.31,-1.79,-1.75,0,*69
1504411636.55,25067,18.31,73118.0,-0.29,-1.75,-1.63,0,*6A
1504411637.74,25068,18.31,73118.3,-0.29,-1.75,-1.59,0,*6C
1504411638.92,25069,18.31,73118.8,-0.29,-1.75,-1.59,0,*6D
1504411640.14,25070,18.31,73112.5,-0.31,-1.75,-1.63,0,*65
1504411641.35,25071,18.31,73116.5,-0.31,-1.67,-1.55,0,*62
1504411642.56,25072,18.31,73108.5,-0.31,-1.67,-1.55,0,*61
1504411643.78,25073,18.31,73106.0,-0.31,-1.75,-1.55,0,*63
1504411644.99,25074,18.31,73106.5,-0.31,-1.67,-1.63,0,*62
1504411646.2,25075,18.31,73122.0,-0.31,-1.75,-1.55,0,*65
1504411647.42,25076,18.31,73122.5,-0.31,-1.75,-1.55,0,*66
1504411648.62,25077,18.31,73120.3,-0.29,-1.71,-1.71,0,*6C
1504411649.83,25078,18.31,73124.0,-0.31,-1.79,-1.75,0,*66
1504411651.08,25079,18.31,73132.5,-0.31,-1.87,-1.63,0,*61
1504411652.29,25080,18.31,73138.5,-0.31,-1.79,-1.63,0,*66
1504411653.5,25081,18.31,73130.8,-0.31,-1.79,-1.55,0,*62
1504411654.72,25082,18.31,73130.0,-0.33,-1.83,-1.59,0,*6A
1504411655.91,25083,18.31,73126.0,-0.29,-1.75,-1.63,0,*60
1504411657.13,25084,18.31,73124.3,-0.33,-1.83,-1.71,0,*66
1504411658.33,25085,18.31,73122.8,-0.33,-1.79,-1.67,0,*65
1504411659.55,25086,18.31,73126.3,-0.31,-1.75,-1.67,0,*68
1504411660.76,25087,18.31,73130.5,-0.31,-1.75,-1.63,0,*6D
1504411661.96,25088,18.31,73130.3,-0.33,-1.71,-1.59,0,*6D
1504411663.17,25089,18.31,73130.3,-0.31,-1.67,-1.55,0,*65
1504411664.38,25090,18.31,73122.5,-0.31,-1.75,-1.55,0,*6E
1504411665.59,25091,18.31,73118.3,-0.31,-1.75,-1.55,0,*6F
1504411666.78,25092,18.31,73124.8,-0.33,-1.79,-1.59,0,*6E
1504411667.97,25093,18.31,73124.0,-0.33,-1.67,-1.55,0,*6C
1504411669.19,25094,18.31,73124.8,-0.31,-1.67,-1.55,0,*69
1504411670.4,25095,18.31,73124.8,-0.31,-1.67,-1.55,0,*68
1504411671.61,25096,18.31,73136.3,-0.31,-1.63,-1.51,0,*6B
1504411672.83,25097,18.31,73128.5,-0.31,-1.63,-1.51,0,*6A
1504411674.04,25098,18.31,73134.0,-0.31,-1.63,-1.51,0,*65
1504411675.26,25099,18.31,73124.3,-0.33,-1.63,-1.43,0,*65
1504411676.5,25100,18.31,73124.8,-0.31,-1.55,-1.39,0,*6E
1504411677.74,25101,18.31,73126.5,-0.31,-1.55,-1.43,0,*62
1504411678.96,25102,18.31,73136.0,-0.33,-1.67,-1.43,0,*62
1504411680.17,25103,18.31,73136.5,-0.31,-1.63,-1.51,0,*66
1504411681.41,25104,18.31,73134.5,-0.31,-1.55,-1.43,0,*67
1504411682.63,25105,18.31,73128.8,-0.33,-1.55,-1.39,0,*69
1504411683.84,25106,18.31,73130.8,-0.31,-1.51,-1.33,0,*66
1504411685.11,25107,18.31,73138.0,-0.31,-1.43,-1.39,0,*6E
1504411686.34,25108,18.31,73138.8,-0.31,-1.51,-1.39,0,*62
1504411687.55,25109,18.31,73144.8,-0.31,-1.51,-1.33,0,*69
1504411688.79,25110,18.31,73140.3,-0.31,-1.43,-1.29,0,*69
1504411690.03,25111,18.31,73144.8,-0.31,-1.43,-1.29,0,*68
1504411691.25,25112,18.31,73146.8,-0.33,-1.47,-1.33,0,*66
1504411692.5,25113,18.31,73142.8,-0.31,-1.39,-1.29,0,*67
1504411693.72,25114,18.31,73138.3,-0.29,-1.39,-1.25,0,*65
1504411694.93,25115,18.31,73134.8,-0.29,-1.47,-1.25,0,*6D
1504411696.15,25116,18.31,73134.5,-0.29,-1.47,-1.29,0,*62
1504411697.4,25117,18.31,73136.8,-0.29,-1.47,-1.35,0,*6E
1504411698.58,25118,18.31,73128.8,-0.29,-1.51,-1.29,0,*6B
1504411699.8,25119,18.31,73126.5,-0.29,-1.59,-1.39,0,*63
1504411701.02,25120,18.31,73114.3,-0.29,-1.63,-1.47,0,*69
1504411702.23,25121,18.31,73114.5,-0.29,-1.63,-1.39,0,*61
1504411703.45,25122,18.31,73098.5,-0.29,-1.63,-1.39,0,*62